Weather Roundup
Issued by NWS Chicago, IL

Home | Current Version | Previous Version | Text Only | Print | Product List | Glossary Off
Versions: 1 2 3 4 5 6 7 8 9 10 11 12 13 14 15 16 17 18 19 20 21 22 23 24 25 26 27 28 29 30 31 32 33 34 35 36 37 38 39 40 41 42 43 44 45 46 47 48 49 50

000
NZUS59 KLOT 280010
HRRLOT

CHICAGO AREA WEATHER ROUNDUP
NATIONAL WEATHER SERVICE CHICAGO/ROMEOVILLE IL
600 PM CST TUE JAN 27 2015

NOTE: "FAIR" INDICATES FEW OR NO CLOUDS BELOW 12,000 FEET WITH NO
SIGNIFICANT WEATHER AND/OR OBSTRUCTIONS TO VISIBILITY.

* THESE STATIONS ARE NOT UNDER NWS QUALITY CONTROL. THEY ALSO MAY NOT
  REPORT WEATHER SUCH AS PRECIPITATION OR FOG.

ILZ005-006-012>014-019>023-280100-
NORTHEAST ILLINOIS

CITY           SKY/WX    TMP DP  RH WIND       PRES   REMARKS
OHARE          PTCLDY    26  15  63 NE8       30.23R WCI  18
6HR MIN TEMP:  26; 6HR MAX TEMP:  32;

MIDWAY         PTCLDY    28  17  63 NE8       30.24R WCI  20
6HR MIN TEMP:  28; 6HR MAX TEMP:  33;

AURORA         CLOUDY    28  22  78 W3        30.23S
6HR MIN TEMP:  27; 6HR MAX TEMP:  32;

LANSING*       CLEAR     26  17  68 N3        30.24S
JOLIET*        CLEAR     27  18  69 CALM      30.23S
WAUKEGAN       CLEAR     22  16  78 NE5       30.24R WCI  16
6HR MIN TEMP:  22; 6HR MAX TEMP:  29;

DUPAGE AIRPORT CLEAR     26  17  68 E6        30.22S WCI  19
6HR MIN TEMP:  26; 6HR MAX TEMP:  33;

WHEELING       CLEAR     26  16  65 NE7       30.25S WCI  18
6HR MIN TEMP:  26; 6HR MAX TEMP:  31;

KANKAKEE*      CLEAR     26  19  73 NE5       30.24R WCI  20
MORRIS*        CLEAR     26  23  85 NW3       30.23R
LEWIS AIRPORT* CLEAR     27  17  67 NE8       30.23S WCI  18
NORTHERLY IS     N/A     27  18  69 N7          N/A  WCI  20
$$

WIZ051-052-058>065-066-070>072-280100-
SOUTHEAST WISCONSIN

CITY           SKY/WX    TMP DP  RH WIND       PRES   REMARKS
MILWAUKEE      MOCLDY    27  16  63 NE7       30.24S WCI  19
6HR MIN TEMP:  26; 6HR MAX TEMP:  30;

KENOSHA*       CLEAR     23  17  78 NE5       30.24S WCI  17
RACINE*        MOCLDY    24  16  71 N3        30.26R
BURLINGTON     PTCLDY    22  15  74 E6        30.23S WCI  15
WAUKESHA       CLOUDY    25  16  68 E5        30.24R WCI  19
WEST BEND      CLOUDY    27  19  74 E5        30.23S WCI  21
$$

INZ001>003-010>013-019-020-280100-
NORTHWEST INDIANA

CITY           SKY/WX    TMP DP  RH WIND       PRES   REMARKS
GARY*          MOCLDY    28  16  59 N12       30.24R WCI  18
MICHIGAN CITY* NOT AVBL
RENSSELAER*    NOT AVBL
VALPARAISO     CLEAR     24  15  68 N5        30.23R WCI  18
$$

LMZ740>746-280100-
SOUTHERN LAKE MICHIGAN

STATION/POSITION TIME  SKY/WX   TEMP WIND        PRES    VSBY
                                AIR  DIR/SP/G
                 (UTC)          (F)  (DEG/KT/KT) (MB)    (MI)
HARRISON CRIB    0000            27  350/ 11/ 13   N/A
BURNHAM HARBOR   0000            27  350/  7/ 10   N/A
CALUMET HARBOR   0000            27  340/  8/  9   N/A
BURNS HARBOR     NOT AVBL
MICHIGAN CITY    0000            27  350/ 12/ 14   N/A
$$

ABBREVIATIONS USED IN REMARKS
   TC - TEMPERATURE IN CELSIUS
  WCI - WIND CHILL INDEX
   HX - HEAT INDEX
  VSB - VISIBILITY
$$



USA.gov is the U.S. government's official web portal to all federal, state and local government web resources and services.